Tracking 27188 objects as of 2-Apr-2023
HD Live streaming from Space Station
objects crossing your sky now

STARLINK-5174

Track STARLINK-5174 now!
10-day predictions
STARLINK-5174 is classified as:


NORAD ID: 54067
Int'l Code: 2022-136S
Perigee: 545.5 km
Apogee: 548.3 km
Inclination: 53.2 °
Period: 95.4 minutes
Semi major axis: 6917 km
RCS: Unknown
Launch date: October 20, 2022
Source: United States (US)
Launch site: AIR FORCE EASTERN TEST RANGE (AFETR)
Your satellite tracking list
Your tracking list is empty




NASA's NSSDC Master Catalog

Two Line Element Set (TLE):
1 54067U 22136S   23091.44472430 -.00002113  00000-0 -11466-3 0  9999
2 54067  53.2182 121.8804 0002023 104.8399 255.2818 15.08845077 24822
Source of the keplerian elements: AFSPC